ECMWFNIL_sfc_gust_057.txt.gz
Wind_Gust
17 16 17 16 15 15 15 14 13 14 13 12 13 10 9 10 10 10 10 10 9 10 10 9 9 8 8 8 7 8 9 9 10 8 8 7 8 9 10 10 10 11
16 16 15 14 12 12 12 13 14 14 13 11 10 10 9 10 10 11 12 12 10 10 10 9 9 9 8 8 8 8 9 9 10 9 10 9 7 7 8 8 9 9
15 14 15 15 15 14 13 11 12 12 13 12 11 10 10 9 11 10 11 11 12 11 10 9 9 8 8 9 9 8 9 9 10 9 10 10 8 8 8 8 8 10
14 14 15 15 15 16 14 14 12 11 11 13 12 11 11 10 10 12 11 10 12 11 10 9 9 8 9 10 10 11 10 10 10 10 11 10 9 9 8 8 9 10
15 15 14 15 14 15 15 16 15 13 12 12 13 12 12 12 11 12 11 11 11 12 10 10 9 9 9 10 10 11 10 11 9 9 11 11 9 10 9 10 11 11
14 17 17 17 16 16 15 15 15 15 13 12 12 12 12 12 13 13 13 12 11 12 12 10 10 9 9 11 10 10 10 11 10 8 12 13 12 10 11 10 12 12
14 13 13 14 15 14 14 13 13 13 13 13 13 12 12 12 12 13 13 13 14 13 13 11 11 10 8 9 10 10 10 10 10 10 11 11 12 12 10 10 11 12
14 13 15 14 14 13 12 13 13 13 13 13 13 12 12 13 13 11 11 13 14 14 13 12 11 11 9 9 11 10 9 8 8 10 11 10 9 13 11 9 9 11
15 14 14 15 15 13 13 14 13 13 14 15 14 13 11 11 12 12 12 13 13 13 13 12 11 11 9 9 10 10 11 9 7 8 10 10 10 12 13 12 12 11
14 14 15 15 15 13 13 12 13 12 13 13 13 13 14 10 10 11 12 12 13 13 13 12 12 10 10 9 10 10 10 10 9 8 8 9 10 10 11 11 13 13
15 15 14 14 14 13 13 13 12 12 11 13 13 12 12 12 10 9 10 12 12 14 13 12 11 11 10 9 8 7 9 9 8 8 7 8 8 8 5 8 9 11
14 13 13 13 13 12 12 11 11 11 11 10 12 13 12 11 11 11 10 12 12 13 12 12 12 11 11 11 10 9 8 8 7 7 7 7 7 7 8 7 8 9
11 11 11 12 12 13 13 13 12 11 11 12 11 12 13 13 11 12 9 10 11 11 11 12 12 11 10 9 10 10 9 9 8 8 8 7 7 7 7 7 7 8
13 12 13 14 15 16 16 15 14 13 11 11 10 10 10 13 14 12 11 9 9 10 10 9 10 10 10 10 9 9 8 8 8 9 9 9 9 9 9 9 8 8
13 14 14 15 17 18 17 16 16 15 14 12 10 8 8 9 8 8 11 11 10 9 9 8 7 8 8 9 9 9 8 9 9 10 10 10 10 10 10 10 10 9
14 15 15 14 15 15 15 15 15 13 12 11 10 8 10 8 8 6 8 9 9 9 9 7 6 6 5 4 2 7 9 8 8 8 9 9 10 10 10 11 12 10
14 13 12 14 12 13 13 15 13 10 7 8 8 10 9 8 5 5 7 7 7 7 7 7 6 9 6 1 3 4 7 9 9 9 9 10 10 11 12 12 12 12
13 13 14 12 13 17 15 10 8 8 7 8 7 8 9 8 9 8 7 7 6 6 6 6 10 12 7 4 2 4 5 9 8 9 9 10 10 11 10 9 9 9
16 16 15 16 16 17 16 12 11 11 12 12 12 12 14 14 13 13 11 10 8 9 11 13 14 12 10 9 6 2 2 5 10 8 9 9 10 10 11 10 9 8
16 16 17 16 15 14 14 13 14 14 14 12 14 14 16 15 14 13 12 12 12 12 14 16 16 12 10 10 7 7 4 3 8 8 9 10 10 10 10 10 9 9
16 17 16 15 15 15 15 17 16 14 14 14 15 14 15 16 13 13 13 13 14 13 15 16 18 14 12 9 7 5 3 2 6 7 8 9 9 9 9 10 9 9
16 16 16 15 17 18 18 18 18 17 15 13 15 16 15 14 15 15 15 15 15 15 14 16 18 19 16 13 10 7 4 7 7 6 7 8 9 10 10 10 10 11
14 15 17 17 16 19 19 18 17 17 15 13 15 16 16 16 15 15 15 15 17 17 16 16 18 20 19 18 15 13 7 9 8 7 8 9 9 8 9 9 10 11
15 16 18 17 18 18 17 15 15 14 13 11 13 14 16 14 12 14 14 15 17 18 18 15 16 18 18 18 17 16 10 11 10 9 10 10 11 9 8 9 9 5
18 18 18 17 17 16 15 16 15 14 12 10 12 13 12 10 10 12 13 14 14 14 15 16 14 14 17 18 17 16 15 12 12 11 11 11 13 13 11 10 9 9
16 17 17 16 15 15 15 13 10 11 12 12 11 11 10 10 9 11 12 12 11 12 15 14 14 14 17 16 17 17 15 14 13 13 13 14 13 14 16 14 13 12

ECMWFNIL_sfc_gust_060.txt.gz
Wind_Gust
16 15 19 19 18 18 18 17 17 17 16 16 17 17 18 15 16 15 14 13 12 12 12 11 11 11 10 10 10 10 12 12 12 12 12 11 10 11 12 12 11 12
20 18 15 16 16 17 18 17 16 17 16 15 16 16 15 15 15 15 15 14 13 13 12 12 12 12 11 11 10 11 12 12 12 13 13 12 12 12 11 11 12 11
20 19 16 15 17 17 18 17 17 16 17 15 15 15 15 13 14 14 15 14 14 14 13 12 12 11 11 11 11 12 13 13 13 12 12 12 11 11 11 12 12 12
16 18 16 16 17 18 18 17 16 17 16 17 16 15 15 13 14 15 14 14 15 14 13 12 12 12 12 12 11 13 13 13 13 12 11 11 11 12 12 12 12 13
17 16 15 15 15 17 17 18 17 17 16 16 16 16 16 15 15 16 15 15 14 14 14 14 13 12 12 12 12 14 13 14 12 11 12 12 12 12 12 13 13 13
15 15 15 16 16 17 18 18 18 17 16 15 16 17 16 16 16 17 16 15 15 14 14 14 14 14 13 14 13 14 14 15 13 12 14 12 12 12 15 14 15 15
19 16 16 18 17 19 19 18 17 17 17 15 16 16 17 16 16 17 17 16 16 15 15 14 15 14 14 14 15 14 13 13 13 13 15 14 12 11 13 14 14 16
20 18 19 18 17 19 18 18 18 17 16 16 15 16 17 17 17 16 15 16 16 15 14 15 16 16 15 15 16 15 13 11 11 12 13 14 11 14 14 15 14 15
20 20 20 18 17 18 18 19 18 16 16 16 16 16 16 16 16 15 16 17 16 15 15 14 16 16 14 15 15 15 15 12 10 11 12 13 13 14 17 16 15 15
20 19 19 18 17 17 18 18 18 16 16 17 16 16 17 15 15 16 17 17 16 15 15 15 16 16 16 16 16 14 13 14 13 12 13 13 13 15 16 15 15 15
19 19 19 18 18 17 18 17 16 16 16 16 16 16 16 15 15 15 17 17 16 16 16 15 16 16 16 15 14 12 13 13 14 13 13 12 11 12 8 13 14 13
20 15 17 17 18 17 18 18 18 17 16 15 16 17 16 15 15 15 16 17 16 15 15 16 16 15 16 16 16 13 13 13 12 13 13 14 12 12 12 11 11 13
17 13 15 17 17 17 17 19 18 17 17 17 16 16 16 15 15 15 14 15 15 14 14 15 16 15 14 14 15 15 14 14 13 13 13 12 12 12 12 11 11 12
15 15 11 14 17 17 17 17 17 17 16 14 14 15 14 15 15 15 14 13 14 13 13 14 15 15 15 15 15 15 13 12 12 11 13 12 11 10 10 10 9 10
20 16 15 11 14 18 18 18 17 16 15 15 14 13 10 13 14 14 15 14 14 13 14 13 13 14 13 11 14 15 12 12 11 12 11 11 11 11 10 9 9 9
20 18 17 15 13 17 19 18 18 18 17 16 15 13 11 10 10 10 13 14 14 14 13 12 11 14 15 12 10 10 12 12 10 9 10 10 10 10 10 9 9 9
23 22 21 20 18 16 16 18 18 16 17 17 15 13 11 11 9 9 8 9 11 12 13 14 19 18 18 15 10 9 11 8 9 10 10 10 10 10 10 11 11 12
22 20 18 16 16 16 17 15 14 15 14 14 13 12 12 12 13 12 11 9 7 10 16 18 16 16 15 15 13 12 8 11 9 11 11 11 11 13 13 12 12 12
21 22 20 18 16 15 15 14 17 14 13 11 11 11 12 14 13 12 10 7 11 17 18 18 15 16 14 13 11 11 11 12 12 12 13 14 12 12 13 12 13 13
18 18 19 18 16 16 16 16 15 14 12 11 11 11 12 13 13 13 11 12 16 18 19 18 18 15 13 11 10 9 7 8 12 11 12 14 14 14 13 13 13 14
19 19 19 18 18 18 17 17 17 15 14 12 12 12 12 12 12 12 12 14 16 18 18 18 18 13 12 12 11 10 9 8 9 8 13 13 14 13 13 13 13 14
18 20 20 17 18 18 18 17 16 16 16 14 14 13 12 13 13 14 18 18 18 18 18 18 18 13 13 13 12 10 9 11 10 9 11 12 12 12 10 14 15 15
19 19 19 19 20 20 19 17 16 16 15 15 17 16 15 15 15 17 18 18 17 17 17 16 18 15 12 13 13 14 9 7 7 13 12 12 13 12 14 14 14 15
18 18 18 17 16 19 19 17 16 16 17 15 15 15 17 16 14 16 16 17 16 15 14 14 16 14 13 14 15 15 12 11 10 9 9 13 13 13 15 16 12 8
18 18 17 17 19 18 17 16 14 14 13 13 15 16 14 13 13 14 14 14 15 13 8 11 13 12 13 14 15 16 16 10 10 10 9 10 11 10 12 14 12 11
17 18 17 17 18 16 16 15 13 13 14 14 14 14 13 12 13 13 12 13 12 13 14 14 12 14 15 13 15 16 16 16 13 12 13 12 11 13 13 10 11 12

ECMWFNIL_sfc_gust_063.txt.gz
Wind_Gust
16 13 15 19 14 14 14 15 15 16 14 14 15 15 16 14 15 13 12 11 9 8 8 8 8 9 10 10 8 11 10 11 12 11 11 12 11 12 12 15 11 9
17 15 12 16 12 12 12 12 14 15 15 13 14 15 15 15 14 14 13 12 11 10 9 9 9 10 10 11 9 10 12 11 11 13 13 12 12 12 11 12 12 11
20 17 13 11 13 13 13 14 14 14 14 14 13 13 14 14 14 14 14 13 12 10 8 9 9 9 10 11 10 10 11 11 10 10 9 11 10 12 11 12 13 12
20 19 17 12 13 15 16 16 14 14 14 15 13 13 14 14 14 15 14 12 13 11 10 10 10 10 11 12 11 12 12 12 12 10 10 9 9 11 11 12 12 13
21 19 16 13 13 16 16 16 16 15 14 15 13 13 15 14 14 16 15 13 13 12 11 11 11 10 10 12 12 13 11 12 12 11 10 9 9 10 12 13 14 13
21 23 18 15 13 17 18 17 17 16 15 14 14 14 14 15 15 15 15 15 14 14 13 13 13 12 12 12 12 12 12 13 11 11 13 12 10 9 14 15 16 15
26 22 19 17 16 18 18 17 16 16 15 14 15 14 15 15 15 15 16 15 15 15 15 14 14 13 13 13 13 13 12 12 13 11 12 12 11 11 12 13 15 15
25 19 20 20 17 18 17 19 17 16 14 15 14 14 15 16 16 15 15 15 14 15 15 16 16 15 14 13 14 13 12 11 12 13 12 13 12 13 12 13 12 15
24 22 23 22 21 20 19 20 19 17 16 15 15 15 15 15 15 15 15 16 15 14 15 16 17 17 14 14 14 15 14 11 10 11 12 12 13 14 14 13 14 16
25 24 24 23 22 22 20 19 19 17 16 16 15 15 16 14 14 15 15 14 15 14 14 15 17 16 15 16 17 15 14 14 13 13 13 13 13 16 18 15 14 14
25 23 24 25 24 22 20 19 18 18 17 17 15 15 14 13 14 14 15 16 14 16 15 15 16 17 16 16 14 13 13 14 15 15 14 13 12 13 12 16 15 14
22 23 23 24 24 22 20 19 20 18 17 16 17 18 16 15 15 15 15 16 15 15 15 15 16 16 16 15 15 13 12 13 13 13 13 12 12 12 14 14 13 14
24 22 24 21 20 20 20 20 19 17 16 16 15 16 16 15 15 16 14 14 16 13 15 15 15 15 15 15 15 14 14 14 13 13 13 13 12 12 12 12 12 13
19 19 20 21 20 20 20 20 19 18 16 15 14 14 14 16 16 15 14 14 14 13 13 13 13 14 15 15 15 14 14 13 13 12 13 12 11 12 11 11 10 11
20 22 19 21 22 21 21 20 20 18 17 16 15 13 12 13 14 15 14 13 14 13 13 13 14 14 18 17 14 17 14 14 14 15 14 14 12 12 11 11 11 11
25 21 21 21 21 21 22 21 19 18 17 16 15 14 11 12 13 13 13 12 15 13 14 15 18 15 15 15 14 15 13 15 12 12 12 13 12 13 11 10 11 11
22 23 22 21 20 20 20 20 20 18 16 15 14 13 11 10 10 13 11 13 15 15 19 18 16 17 17 15 16 16 17 11 13 11 10 10 10 11 11 12 11 12
20 22 22 20 20 20 20 20 19 18 18 16 15 14 11 11 11 12 14 16 20 21 18 17 16 16 15 16 15 16 12 15 10 10 10 10 10 11 11 10 11 10
18 20 21 20 21 22 20 18 19 20 17 16 16 14 14 15 13 14 16 17 17 18 17 15 14 13 14 13 13 13 15 13 12 7 9 10 9 10 10 8 10 11
16 19 23 22 18 17 15 14 16 17 16 15 15 15 15 15 15 16 16 16 15 15 14 12 12 12 11 11 10 11 11 10 12 11 9 9 10 10 10 10 11 11
17 16 18 18 17 16 14 14 15 14 13 12 13 14 14 13 11 13 14 13 14 12 13 11 12 11 11 12 12 11 11 8 12 10 12 12 12 12 12 12 12 12
17 18 19 18 17 17 18 15 12 12 11 10 12 12 12 11 10 9 11 11 13 13 11 13 12 12 13 15 15 14 14 14 13 12 12 12 11 10 11 12 13 13
18 19 20 19 16 16 18 16 14 12 12 12 13 13 12 12 11 11 11 12 12 10 11 11 13 14 19 20 19 20 13 14 12 14 13 11 12 10 12 11 12 13
18 18 20 20 18 18 16 13 15 15 15 12 14 15 15 13 11 12 13 13 12 11 13 15 16 18 22 23 21 20 14 14 11 11 10 11 9 9 12 13 16 11
19 19 19 18 18 17 15 15 15 14 13 14 14 14 14 13 12 12 13 13 13 13 9 15 17 16 19 19 18 16 18 13 12 11 9 11 9 10 8 11 10 14
18 18 18 18 17 16 16 17 16 15 14 12 11 12 13 11 10 12 12 10 9 11 13 14 15 16 16 14 15 16 18 16 14 13 12 12 12 14 15 11 12 12

ECMWFNIL_sfc_gust_069.txt.gz
Wind_Gust
12 9 10 9 9 10 10 10 10 10 12 13 14 13 14 10 11 11 9 8 10 10 7 8 11 11 10 8 7 7 8 8 7 8 9 8 6 8 10 9 6 8
7 6 5 5 7 6 7 11 10 11 12 11 13 13 12 11 10 11 10 10 10 10 8 8 9 10 9 8 7 9 7 7 6 8 10 8 7 7 9 8 7 7
6 5 5 6 8 6 6 9 9 10 11 12 12 13 13 11 12 11 11 10 10 9 9 7 7 8 8 8 10 10 9 7 7 6 9 10 8 7 6 7 7 6
3 4 5 5 6 6 6 9 9 9 10 12 12 13 14 12 13 12 9 9 10 8 8 8 8 7 8 8 10 9 8 8 7 7 8 7 8 8 7 7 7 6
8 6 5 4 5 5 7 10 11 9 10 12 12 13 15 13 12 10 9 9 9 8 7 8 6 8 9 7 8 8 8 9 7 7 8 7 7 8 7 8 7 6
7 6 5 5 4 6 8 10 10 9 10 11 13 13 14 13 11 10 11 9 8 8 6 5 6 11 9 8 8 7 8 10 7 8 8 8 6 6 9 7 7 6
9 8 6 6 4 6 8 9 8 9 10 12 14 13 14 13 10 11 10 10 9 7 5 4 8 8 7 10 8 7 8 9 7 9 9 8 10 8 7 6 5 6
10 8 7 5 5 6 8 8 10 12 12 12 13 12 13 11 10 10 10 10 8 7 5 5 5 5 7 9 7 6 7 8 8 8 8 10 10 9 6 7 6 6
12 10 8 5 6 6 7 8 10 11 11 13 13 11 10 10 12 12 11 10 8 7 6 5 5 5 6 6 6 7 5 2 8 13 10 10 11 9 8 7 7 6
13 11 10 8 8 6 7 7 11 10 12 12 11 10 10 8 11 11 10 9 8 7 7 6 5 5 6 7 7 6 5 7 9 11 11 12 11 9 10 9 8 7
14 12 12 10 8 8 9 11 13 11 12 12 12 10 7 10 10 10 10 9 10 8 6 6 7 6 6 7 6 5 6 6 7 7 9 9 10 11 10 10 9 8
13 14 11 11 11 11 12 13 12 11 12 10 11 10 9 11 11 8 10 10 9 8 7 6 8 7 7 8 6 5 5 5 3 4 6 8 10 11 11 8 9 8
16 17 14 12 12 13 13 12 11 10 11 10 9 10 10 10 9 10 8 10 8 9 9 12 13 14 10 5 7 5 6 4 2 5 8 12 10 11 9 9 8 8
17 18 13 15 13 14 14 12 11 9 10 9 11 11 10 10 10 10 8 11 17 16 16 14 14 14 11 10 8 4 6 3 4 5 7 9 8 9 10 8 7 7
14 12 10 13 15 15 14 13 10 9 10 11 10 10 9 8 8 12 19 19 17 15 16 15 16 14 10 10 8 9 5 6 6 6 7 10 9 9 12 13 12 12
14 11 10 12 15 14 16 12 11 11 11 11 11 9 7 9 15 18 18 17 18 16 15 15 14 11 13 11 8 4 7 6 6 6 8 8 10 13 12 11 11 11
14 12 12 12 13 15 13 11 13 13 12 12 12 14 17 17 19 19 17 16 17 17 15 14 11 11 11 8 9 10 11 10 5 5 7 7 8 11 10 9 8 10
14 12 10 10 12 17 10 10 13 13 13 15 17 17 16 18 20 18 16 14 16 17 15 12 12 11 9 11 11 11 9 11 12 10 6 5 8 8 9 10 10 9
15 12 12 13 14 11 15 16 18 18 17 18 17 15 17 19 16 18 16 14 16 18 15 11 12 13 14 13 11 11 12 10 11 12 17 17 18 20 19 19 14 15
17 18 17 15 15 13 15 16 19 17 16 16 17 17 19 17 16 17 15 15 15 16 14 13 15 15 16 15 13 12 11 9 11 14 14 14 14 16 17 17 16 16
17 19 18 14 15 16 18 16 17 17 16 14 17 17 17 16 14 15 14 13 13 12 15 16 15 15 17 17 15 13 12 8 12 13 14 13 12 13 14 15 13 14
14 16 17 14 14 19 21 21 17 17 16 14 19 19 17 17 14 14 15 14 12 13 16 17 16 19 18 18 17 15 11 8 12 13 15 13 13 12 13 10 9 11
17 15 17 15 12 17 20 18 18 18 15 13 20 19 19 18 15 13 12 13 14 15 16 15 16 18 19 19 18 17 10 11 11 14 16 18 12 13 14 13 10 11
19 18 16 18 18 16 15 15 14 14 15 15 18 19 19 15 13 14 13 13 16 16 15 16 14 16 18 19 19 20 14 13 11 14 15 14 13 14 15 15 18 23
16 17 16 17 19 16 16 18 16 14 13 16 17 17 16 13 13 14 15 15 15 15 14 16 13 13 16 17 18 18 16 13 12 11 14 11 12 13 12 14 15 16
16 17 16 16 17 16 16 15 12 14 16 17 17 15 14 12 12 13 16 13 11 12 13 12 13 12 15 17 17 17 15 14 11 13 11 9 8 9 10 11 13 13

ECMWFNIL_sfc_gust_072.txt.gz
Wind_Gust
9 8 9 9 9 9 10 9 8 9 9 8 10 9 11 8 7 10 9 8 8 10 10 10 8 8 8 8 8 9 8 9 8 8 9 9 7 8 9 6 5 8
8 9 9 9 8 7 7 7 8 11 11 9 10 9 7 9 6 11 10 9 8 9 10 9 8 9 8 9 8 10 8 8 8 7 9 8 8 8 7 6 6 4
12 9 10 10 12 10 9 6 7 10 12 10 9 10 10 8 9 7 10 10 8 9 10 10 9 8 8 8 8 9 9 7 8 6 9 8 8 9 8 7 5 6
13 12 10 9 9 10 9 9 8 8 9 10 10 9 10 9 10 10 10 10 10 8 9 9 10 8 8 9 8 9 8 8 8 8 7 5 6 9 9 7 6 5
13 13 10 9 7 8 8 10 13 11 12 12 9 9 12 11 10 10 10 10 10 8 8 9 8 9 9 10 8 9 7 8 5 7 8 7 6 7 6 8 7 6
10 10 9 9 9 9 9 11 12 15 12 11 13 12 12 10 10 10 10 11 10 10 7 7 8 8 10 10 9 9 8 8 6 7 8 8 6 5 8 7 7 6
13 12 10 8 8 9 11 11 11 13 13 12 13 13 12 11 11 11 10 11 11 10 9 8 8 8 8 10 9 9 8 8 7 8 9 7 8 6 6 7 8 7
13 11 12 8 8 10 12 12 13 15 13 13 15 13 12 13 12 11 10 11 10 9 9 8 9 9 8 9 10 9 8 7 9 8 8 8 8 8 7 8 7 7
13 12 11 9 9 10 11 12 14 14 15 16 14 12 10 13 13 12 11 10 9 8 8 8 9 8 7 8 9 9 9 7 8 9 9 9 9 9 9 7 7 7
10 12 12 10 10 11 12 12 15 16 15 16 13 12 12 12 13 11 10 10 9 6 8 8 7 7 6 7 9 9 11 11 10 10 10 10 10 9 8 8 8 7
9 12 13 11 11 11 12 14 15 17 16 17 14 13 12 13 11 10 10 10 10 8 7 7 7 7 8 7 6 7 10 11 12 11 10 9 9 10 9 9 8 8
11 8 12 12 13 12 14 15 17 16 17 15 16 14 13 13 12 10 11 10 10 9 6 5 5 6 9 9 8 8 9 8 10 10 10 9 8 7 8 8 8 6
11 15 13 12 14 14 13 15 17 18 17 16 14 15 14 11 11 12 8 9 7 9 9 8 7 7 5 5 7 7 9 9 9 9 8 9 7 7 7 7 8 8
14 9 8 9 8 8 8 10 16 18 16 14 12 14 14 11 10 11 10 13 11 11 9 8 9 9 6 4 4 5 7 7 8 10 9 7 7 6 6 7 8 7
9 12 9 7 8 9 11 11 11 13 15 13 12 11 10 12 14 15 16 16 12 11 11 9 11 8 6 5 4 5 5 8 8 10 10 10 7 6 8 11 7 8
9 13 13 11 12 13 14 12 13 14 14 13 12 13 13 16 15 14 15 15 15 11 11 11 11 7 8 8 6 2 6 8 8 10 10 10 10 8 8 11 9 10
12 12 14 14 12 9 10 12 14 15 15 15 15 15 16 16 17 17 14 13 14 14 11 9 9 6 6 4 5 5 7 8 8 8 9 11 12 13 12 12 12 11
11 14 16 15 12 12 10 11 13 15 16 17 18 17 15 17 18 16 14 13 14 14 13 10 8 7 6 8 9 11 11 12 10 12 11 9 10 13 13 13 12 13
13 15 16 14 12 11 10 14 14 16 17 19 18 16 15 19 16 16 14 10 13 16 13 9 8 9 8 11 12 13 16 15 13 13 14 11 11 12 13 13 11 13
12 15 16 14 15 16 14 17 15 16 16 17 18 17 19 18 15 16 13 12 12 14 13 10 10 10 10 12 13 14 16 15 13 15 13 13 13 13 12 12 11 12
13 14 16 15 15 18 18 16 14 17 17 15 18 17 19 17 16 16 13 12 10 11 15 13 12 10 10 12 13 15 16 12 13 14 13 12 11 9 9 11 12 14
17 14 16 15 16 18 21 18 15 15 15 13 20 19 17 17 14 14 14 13 10 10 16 15 13 15 12 13 13 14 15 15 14 14 14 13 12 11 12 11 10 12
17 16 15 15 14 17 18 16 14 17 13 11 20 18 18 18 15 14 11 12 12 13 16 14 14 15 14 14 14 14 12 14 15 15 15 15 13 13 13 15 14 13
17 16 17 16 16 17 17 15 11 14 15 11 17 19 20 17 17 18 14 13 14 14 13 16 14 15 16 16 15 15 12 16 14 18 16 16 15 13 14 15 16 19
14 16 18 18 20 17 15 17 15 14 15 17 15 15 19 16 16 19 17 15 14 14 15 18 16 16 18 18 18 15 14 12 13 17 20 14 16 14 13 14 14 13
16 15 17 17 18 19 17 15 12 15 14 16 16 17 16 17 16 19 21 17 14 15 17 16 19 17 20 20 19 18 15 14 12 16 15 13 12 13 12 9 8 8

ECMWFNIL_sfc_gust_075.txt.gz
Wind_Gust
13 14 13 12 12 11 12 12 11 12 12 10 11 10 12 9 9 10 9 9 9 10 9 8 7 7 8 8 9 9 9 9 8 9 9 10 8 10 11 8 6 10
14 14 17 13 11 7 9 10 12 13 12 10 10 11 8 9 9 10 10 9 9 9 8 9 8 8 9 9 9 10 8 9 9 6 10 8 8 9 9 9 9 7
12 12 16 16 14 11 11 9 9 10 10 9 9 9 10 9 11 7 10 10 9 8 8 9 8 8 9 8 8 9 9 9 9 7 8 8 8 9 8 9 8 9
15 16 16 15 14 14 12 11 8 8 8 9 8 12 7 10 10 10 9 10 10 9 8 8 8 7 7 7 8 8 8 8 8 9 7 6 8 9 8 9 7 7
16 15 14 14 13 12 13 12 11 10 11 13 13 16 11 10 10 11 10 8 9 9 8 8 7 8 7 8 7 8 6 7 6 8 9 7 6 7 7 8 8 8
9 11 11 12 11 11 11 11 11 12 12 15 15 12 9 11 12 11 11 10 8 10 9 8 9 8 8 8 7 8 8 8 7 8 8 9 7 5 8 7 8 8
9 8 9 8 8 10 12 9 9 11 14 14 11 12 10 11 11 11 11 11 10 10 10 10 9 8 7 8 8 6 6 7 7 8 9 7 8 6 5 7 8 7
8 7 5 8 11 11 10 10 11 13 12 12 14 12 11 12 10 9 8 9 10 8 9 8 7 8 7 8 8 7 6 6 8 8 7 7 7 8 7 8 7 8
7 7 6 8 11 11 12 13 13 12 12 15 14 14 12 14 13 11 10 9 8 8 8 7 8 7 7 8 8 10 9 7 7 8 8 9 8 9 9 6 6 7
8 10 9 16 15 11 13 14 16 14 15 14 14 14 14 10 12 13 11 10 9 8 8 8 7 6 8 7 9 9 9 9 7 7 8 8 9 9 9 9 9 8
10 9 14 18 14 10 13 13 13 14 15 15 14 13 12 12 11 12 12 11 12 10 7 8 8 9 8 7 6 8 9 9 8 8 7 8 8 8 9 10 8 9
11 7 13 13 8 8 10 12 10 11 14 13 15 15 12 12 14 10 12 11 10 8 9 8 9 9 9 9 8 7 7 8 8 8 8 8 6 6 6 7 9 7
8 6 9 14 14 9 8 14 14 14 9 13 13 16 14 13 12 13 10 10 8 9 8 8 7 7 8 7 6 7 8 9 8 7 6 6 5 6 6 9 14 15
13 12 14 12 8 11 14 16 15 14 15 14 13 16 17 16 13 10 8 8 9 8 7 7 8 7 6 6 7 10 9 9 10 8 6 6 6 7 8 9 11 13
12 18 14 12 12 11 14 17 17 14 12 20 21 17 16 12 12 13 12 10 8 8 8 6 9 8 7 7 9 7 8 10 9 9 8 9 8 7 5 6 9 8
13 13 12 10 13 13 15 16 15 11 11 12 18 21 13 12 12 11 13 12 12 8 6 7 7 5 4 5 3 6 7 8 8 8 9 11 12 10 9 8 9 9
11 12 9 12 14 13 15 13 14 14 14 14 14 15 16 14 14 13 11 9 11 10 9 7 4 3 2 2 4 4 6 9 10 8 8 11 12 14 12 12 9 9
9 11 11 12 11 15 18 15 14 14 13 12 13 13 14 13 12 13 11 11 11 9 9 7 5 5 3 3 5 7 8 11 10 11 10 10 12 13 12 12 11 10
15 11 10 14 13 14 15 16 15 15 13 13 12 13 15 15 14 14 13 9 12 12 10 6 5 6 3 3 10 13 13 11 10 11 14 11 12 13 12 13 12 12
15 14 14 11 10 12 14 15 15 15 12 12 9 14 15 15 13 14 11 11 10 11 10 8 7 7 4 8 14 16 16 13 10 13 12 12 10 9 10 10 10 13
19 17 15 7 10 14 15 15 16 14 14 14 12 8 16 16 15 14 12 11 9 9 12 11 10 9 7 9 17 17 18 13 14 15 15 13 12 11 10 10 8 9
19 19 18 15 9 15 18 17 16 16 15 13 15 13 12 16 13 14 14 12 9 8 13 14 12 14 11 9 16 19 18 17 16 17 16 15 15 14 13 10 9 8
19 19 19 19 18 15 18 17 17 19 16 14 17 12 16 15 17 14 12 13 12 11 14 14 13 14 13 12 11 17 17 17 17 17 16 16 14 14 12 12 12 9
16 19 21 19 18 16 17 18 19 20 18 13 18 17 18 13 14 17 15 14 16 16 13 16 14 15 16 15 13 11 13 19 17 19 16 16 16 14 12 13 17 21
18 17 20 21 17 16 16 20 19 18 17 19 18 17 16 12 13 18 17 17 16 16 17 18 16 16 18 16 16 12 12 15 17 18 18 14 14 14 11 11 13 14
19 19 17 19 20 16 14 18 20 19 18 21 19 17 16 14 15 17 19 17 14 17 18 16 17 17 19 19 16 16 11 12 10 18 18 15 13 11 17 11 10 10

ECMWFNIL_sfc_gust_078.txt.gz
Wind_Gust
11 10 11 11 11 11 12 13 13 13 13 11 11 11 13 11 9 11 11 10 10 10 10 9 8 8 9 10 11 10 11 12 12 11 13 13 12 12 13 11 10 12
12 11 11 13 11 10 11 12 12 12 11 11 11 9 7 7 8 10 11 10 10 10 9 9 9 10 10 10 10 11 10 10 11 8 12 12 11 12 12 13 13 9
11 14 17 16 16 13 13 11 11 11 10 9 7 7 8 7 9 8 10 11 11 9 9 9 9 10 11 10 10 11 11 10 10 9 11 12 11 12 11 12 10 12
10 14 18 15 12 13 13 10 9 9 6 7 9 8 10 9 9 10 10 11 11 10 10 9 10 10 11 12 11 10 11 12 11 11 10 8 9 10 10 10 9 9
6 10 11 8 8 5 8 4 7 8 9 9 8 9 10 8 8 9 10 9 9 9 9 10 8 9 9 10 10 10 9 10 9 10 10 10 9 10 9 11 11 10
4 7 9 7 7 7 11 16 12 11 10 9 12 11 10 9 10 10 10 10 9 9 9 8 9 8 9 9 9 10 10 10 10 9 10 10 9 7 10 10 10 10
6 7 9 11 16 15 19 17 13 12 12 12 8 10 9 9 9 10 11 11 11 10 11 10 9 9 8 9 10 9 9 9 10 10 10 9 10 8 8 9 10 10
9 9 8 12 14 12 10 10 9 12 12 10 12 12 11 11 11 10 10 11 12 11 11 10 10 10 10 10 11 10 9 8 10 11 10 9 9 10 9 9 9 9
8 8 9 9 9 7 6 9 9 9 10 12 11 11 9 12 12 11 12 11 11 12 12 11 11 11 10 11 11 12 11 9 9 11 11 11 10 10 10 9 8 8
6 8 7 7 9 9 12 9 10 10 9 9 9 9 13 10 11 12 12 12 13 12 12 12 11 10 10 10 12 12 11 11 10 10 10 11 11 11 10 10 10 9
12 14 12 11 15 14 11 9 9 10 8 7 8 10 10 11 11 11 12 13 14 14 12 12 13 12 12 10 9 10 12 12 11 10 10 10 10 11 10 11 11 11
9 12 7 7 10 7 7 9 11 15 14 14 16 15 11 11 13 13 14 13 12 12 12 13 13 13 13 13 12 10 10 10 11 10 10 9 9 8 8 8 10 10
9 8 6 7 9 9 9 11 13 11 13 17 14 12 15 15 12 13 11 13 12 11 11 12 11 11 12 11 11 11 12 11 11 9 7 7 7 9 9 9 11 11
16 9 7 7 8 11 15 14 13 14 14 12 11 12 12 12 14 12 9 8 10 11 10 10 9 9 9 10 11 11 11 10 11 10 10 9 9 8 9 10 12 13
18 15 8 8 9 12 14 13 12 15 15 12 9 8 7 8 9 8 11 8 5 6 8 7 10 11 10 11 10 9 9 11 11 11 11 11 9 9 8 8 7 8
18 16 13 10 10 12 12 12 14 16 16 14 13 11 11 12 8 5 10 13 11 7 5 6 7 6 7 11 9 12 12 10 10 11 12 12 12 11 8 6 6 6
18 17 17 12 11 11 13 13 15 15 13 14 12 12 12 9 10 9 8 9 12 11 9 6 6 5 5 7 8 9 10 12 13 12 11 12 12 13 12 9 7 8
20 18 17 15 10 11 13 15 14 15 15 17 15 13 11 9 11 9 8 9 9 8 9 9 7 3 4 5 7 8 8 14 13 14 13 12 12 12 12 11 10 10
19 18 17 17 13 11 10 13 13 12 14 14 13 12 10 11 10 9 9 8 10 11 8 6 5 3 3 5 7 9 12 13 12 13 14 12 11 12 13 13 12 13
20 18 17 16 16 10 7 8 9 11 8 11 11 9 11 9 9 9 8 8 7 8 8 6 5 6 4 7 10 13 14 12 13 14 13 13 12 11 11 10 10 14
20 19 18 19 17 16 8 6 7 9 14 13 13 10 9 10 10 11 9 9 9 8 8 8 7 8 8 11 13 16 17 13 16 16 16 15 14 12 12 11 10 11
20 18 18 19 19 18 19 17 14 11 15 16 16 15 13 13 16 11 11 11 10 9 9 10 10 11 9 9 16 18 19 16 16 18 18 17 16 13 13 12 13 14
20 19 18 18 17 18 19 19 17 14 17 15 22 19 17 17 19 13 11 13 14 12 11 11 11 12 11 9 14 20 17 18 18 17 17 17 16 12 12 13 12 11
20 19 19 17 18 19 18 19 18 16 20 18 21 22 23 20 19 15 15 16 16 16 12 12 13 14 13 10 10 11 16 22 18 20 16 17 15 13 13 15 16 17
19 20 19 18 17 17 17 18 18 15 16 17 21 20 19 17 21 19 17 19 18 16 17 16 14 14 16 14 13 11 14 18 20 20 20 15 16 15 12 13 14 13
19 20 20 19 17 15 18 19 16 14 16 18 18 20 19 16 18 20 20 19 19 20 18 16 17 17 18 18 15 14 11 14 15 23 20 17 13 16 16 12 12 11

ECMWFNIL_sfc_gust_084.txt.gz
Wind_Gust
16 14 13 13 16 16 16 19 18 20 22 20 16 14 14 14 15 16 17 19 19 19 20 20 19 19 20 18 19 21 20 20 21 21 21 22 21 20 21 20 18 17
15 14 13 16 16 15 17 18 21 22 20 18 16 12 13 13 11 14 17 20 19 20 21 22 21 22 19 20 21 22 20 20 21 20 21 22 20 21 19 20 20 18
15 14 14 16 17 15 15 15 15 16 16 15 16 20 19 17 18 16 20 21 22 20 22 20 21 21 21 21 20 21 21 20 21 20 20 22 21 19 19 18 19 18
18 19 16 15 16 15 15 15 14 14 15 15 17 20 20 20 20 16 18 19 20 20 20 20 21 22 23 23 21 21 20 20 20 20 19 19 21 20 19 19 20 19
19 21 19 16 15 15 15 14 14 12 13 16 16 17 16 17 18 18 19 20 21 24 24 22 22 23 22 21 21 21 20 20 20 20 21 20 19 19 19 19 20 19
17 19 18 17 15 15 15 14 15 14 15 15 17 16 18 18 18 19 20 22 22 24 24 23 22 23 22 21 21 21 20 20 19 19 21 21 20 20 22 21 19 20
18 16 17 17 14 14 15 14 13 13 14 14 15 17 18 18 20 20 21 23 23 22 23 22 21 21 21 21 22 22 21 19 20 21 21 21 20 19 21 19 20 19
18 17 16 14 13 13 14 16 15 14 13 14 16 17 18 20 21 20 21 21 20 21 22 21 24 21 21 22 23 23 22 21 21 22 22 21 20 20 20 20 19 23
20 19 20 20 15 12 13 15 15 14 14 15 16 17 18 20 20 21 21 18 19 17 18 16 20 20 19 21 21 22 23 22 21 22 22 21 21 19 22 20 19 22
19 20 19 19 18 16 14 13 14 14 14 14 15 17 20 20 21 21 21 19 18 15 15 12 14 19 19 21 23 22 22 22 21 21 21 21 21 22 22 20 20 20
19 19 18 17 18 18 17 16 14 14 13 14 14 16 19 20 20 20 20 21 23 23 24 17 14 18 21 21 21 21 21 21 21 20 19 19 21 23 16 20 21 21
22 21 20 18 17 18 17 16 15 14 14 13 14 16 18 19 19 19 20 23 24 24 24 18 15 15 18 23 23 22 22 20 20 20 21 20 22 20 21 21 20 21
23 22 21 20 19 18 18 17 15 14 14 15 13 15 16 18 19 20 19 21 24 24 25 21 17 16 19 22 25 23 23 23 22 21 23 23 22 21 21 20 20 20
25 23 21 22 20 19 18 17 17 15 14 14 15 15 15 17 19 19 20 21 24 24 24 21 18 18 18 22 25 22 22 21 21 20 20 22 19 20 20 20 21 20
26 24 23 23 22 21 20 19 18 16 14 14 14 16 16 17 18 20 22 24 24 23 22 21 21 22 20 21 24 22 22 21 21 22 21 21 21 21 20 20 20 21
26 25 26 25 24 24 22 21 21 18 15 15 15 15 16 17 20 20 21 22 22 22 22 23 24 23 15 19 16 22 23 23 21 21 21 20 20 20 20 20 21 19
27 26 26 26 25 25 23 23 22 22 21 17 15 14 15 16 16 16 18 18 20 20 21 23 22 22 15 20 21 14 18 20 20 21 20 21 20 20 20 21 20 21
27 27 27 27 26 26 25 23 22 21 21 21 21 19 18 14 15 15 20 20 19 19 20 18 16 8 12 14 13 11 9 19 20 21 21 21 20 21 19 19 19 19
26 27 28 28 27 26 25 24 24 22 22 21 21 22 21 19 14 18 20 19 17 17 17 14 12 5 13 15 15 13 10 13 21 20 20 19 20 21 21 18 17 17
26 26 27 27 27 27 26 25 25 25 23 21 19 20 20 20 20 18 16 13 10 11 13 8 12 11 11 12 13 12 12 10 20 19 19 19 20 20 18 19 18 18
27 26 26 27 27 27 26 26 25 23 23 23 20 19 17 17 17 16 16 14 13 11 11 12 12 13 13 13 14 11 12 10 19 16 17 18 18 17 17 17 17 17
27 27 27 27 27 27 27 26 25 24 24 23 21 20 19 17 17 18 17 16 15 16 15 15 17 17 15 13 13 13 14 19 19 17 17 18 18 17 16 16 16 14
26 26 26 27 27 27 27 26 26 25 23 22 21 22 21 21 18 18 16 16 18 20 19 17 15 17 20 16 14 15 14 19 17 17 17 18 17 16 15 15 15 15
24 25 25 26 26 27 26 25 25 24 23 22 22 21 22 22 20 22 22 21 20 19 19 17 18 22 25 23 13 12 14 12 15 16 16 15 15 13 12 14 17 23
24 23 23 25 25 25 25 25 24 23 22 22 22 21 21 21 23 23 25 27 24 19 18 18 15 17 24 22 22 21 20 7 8 14 15 14 14 14 13 14 14 16
24 23 21 22 24 24 24 23 22 22 22 22 22 22 22 22 24 26 27 26 24 23 18 19 17 19 24 21 19 23 17 13 12 10 12 16 15 15 16 15 15 16

ECMWFNIL_sfc_gust_087.txt.gz
Wind_Gust
18 18 16 15 13 15 16 16 20 20 23 22 20 19 21 19 18 18 18 20 19 17 17 16 17 20 17 15 14 17 14 19 19 19 22 21 23 23 22 21 19 19
18 18 18 18 14 14 15 16 18 20 22 22 22 19 19 18 18 19 21 22 22 20 20 16 18 19 20 20 17 13 15 15 20 23 20 21 22 23 22 21 20 18
17 19 21 20 19 16 13 14 16 20 21 22 20 21 21 19 19 20 23 23 21 21 18 19 20 19 18 17 16 17 16 13 18 18 20 22 22 22 18 20 20 18
19 20 21 21 20 16 16 14 16 17 16 17 20 24 24 20 20 21 21 23 23 21 20 19 17 18 18 16 16 12 12 16 18 17 16 16 20 21 21 18 19 20
19 21 21 22 19 17 18 17 18 16 18 20 19 20 23 23 21 20 21 22 23 22 21 20 18 17 16 15 12 11 15 18 19 17 14 19 20 20 19 19 20 19
18 21 22 22 21 19 15 17 19 16 16 20 20 20 20 22 20 19 19 20 20 22 19 20 19 16 14 12 12 14 17 19 17 15 16 19 20 19 20 21 20 20
19 19 20 20 19 18 16 14 14 15 16 19 20 18 21 23 21 20 20 20 21 21 20 19 17 14 15 15 16 18 20 18 20 20 22 21 20 22 21 18 20 22
19 18 20 22 21 19 15 16 15 14 15 18 18 20 20 21 24 19 19 19 20 21 19 18 18 17 17 18 17 18 20 20 17 20 20 21 20 19 20 20 18 20
20 18 19 20 20 20 20 20 21 17 16 19 19 18 17 17 20 21 19 19 20 20 19 16 18 19 18 20 20 22 21 16 14 14 15 18 20 22 22 20 21 18
20 20 19 20 20 20 20 21 24 22 19 19 19 20 20 16 20 19 19 17 22 21 20 19 19 21 22 21 21 20 16 14 12 16 20 22 21 20 19 19 20 18
20 20 20 20 20 20 21 22 21 22 21 21 21 22 20 19 18 19 17 14 15 22 20 20 20 20 20 22 21 18 16 17 16 16 21 25 22 20 18 22 20 18
21 20 20 21 21 21 21 22 22 21 21 20 20 21 22 21 19 18 19 19 17 22 22 23 22 21 22 22 20 18 16 15 14 13 15 22 21 21 24 24 20 19
22 22 22 22 22 22 22 22 22 22 22 23 20 19 22 23 21 21 19 20 18 17 24 21 20 19 21 20 21 20 17 15 17 14 13 19 21 25 23 19 17 17
22 22 22 22 22 22 21 21 23 22 23 25 24 22 19 21 23 20 19 21 19 17 16 18 20 18 19 22 22 20 17 15 16 15 21 23 19 20 18 20 16 17
23 23 23 24 24 23 22 23 22 22 23 24 25 26 27 22 21 20 20 21 20 20 18 15 16 19 18 19 20 20 18 16 17 17 16 17 18 18 17 16 15 15
25 24 26 25 25 24 24 24 24 23 23 23 24 25 25 26 26 24 20 20 20 18 16 13 13 12 12 13 15 18 18 18 17 18 18 19 18 18 16 19 17 19
25 26 26 26 25 26 24 25 25 24 23 24 24 24 23 24 25 26 27 22 19 20 19 13 13 12 8 6 9 9 11 13 13 13 16 21 23 23 19 18 17 17
26 26 27 27 27 27 26 25 25 24 24 24 24 25 25 24 24 25 25 24 23 20 17 16 15 10 10 8 9 12 7 11 11 15 25 19 19 21 20 20 20 19
26 27 27 27 27 27 26 26 26 25 26 24 24 23 23 23 24 24 23 23 21 21 21 18 13 15 14 12 11 10 11 9 13 21 22 22 20 23 21 20 20 19
26 26 27 26 26 27 26 27 26 27 25 24 23 24 25 23 22 24 24 25 25 23 21 19 21 20 20 17 13 12 11 8 14 18 22 23 21 19 16 16 15 15
26 26 26 26 26 26 26 27 27 26 26 25 24 24 24 25 23 23 24 23 24 24 22 19 18 22 22 19 14 11 10 7 14 17 18 19 22 16 15 18 15 12
25 25 25 26 26 26 26 26 26 26 25 24 23 24 22 22 23 23 23 24 24 24 23 21 19 22 24 20 14 8 8 9 12 18 18 17 18 18 15 16 16 17
24 24 24 25 26 26 26 26 25 25 24 24 24 24 24 24 23 23 24 25 26 25 24 21 19 23 25 20 16 8 8 8 8 14 10 18 22 21 14 22 24 19
24 24 23 24 24 26 27 26 25 24 24 23 23 23 24 23 22 23 23 23 24 24 27 23 22 23 26 27 22 15 9 12 9 10 18 19 18 12 18 17 19 21
25 24 22 22 23 24 25 25 25 25 24 23 22 21 22 20 21 22 22 22 23 23 25 27 23 23 27 27 26 21 16 13 12 11 11 11 15 17 16 18 19 21
24 24 23 23 23 23 25 25 24 25 25 24 23 23 22 21 22 23 23 23 23 23 28 27 28 25 28 29 27 26 20 20 18 13 11 12 14 16 17 17 19 19

ECMWFNIL_sfc_gust_093.txt.gz
Wind_Gust
16 17 17 16 15 12 13 12 11 10 10 8 8 8 9 10 8 7 10 8 13 13 11 11 10 10 12 12 12 13 14 13 14 13 14 16 15 14 15 14 12 14
15 16 16 16 15 14 14 13 12 10 10 9 7 8 8 8 9 10 11 11 9 11 10 13 13 12 12 12 13 13 16 13 15 14 15 16 15 15 16 16 14 12
12 13 15 16 16 15 16 15 13 12 11 10 9 7 9 6 7 6 9 10 11 9 7 9 13 16 14 12 13 12 13 13 15 14 16 17 16 17 16 14 12 13
11 12 14 15 16 16 16 15 16 16 14 14 13 11 10 8 7 8 7 9 9 9 7 9 14 10 12 12 14 14 13 14 14 14 16 14 13 13 13 13 13 12
13 12 12 15 16 17 17 17 18 18 17 16 15 14 11 10 9 8 8 7 7 8 8 9 11 12 14 13 13 15 14 15 15 14 16 15 13 13 13 13 13 12
12 14 14 15 16 17 18 18 19 19 18 15 17 16 15 14 10 9 7 8 7 7 10 9 9 11 11 11 12 13 13 14 13 13 14 13 13 13 12 11 13 12
12 12 13 14 14 15 17 19 19 17 17 16 15 17 18 19 18 15 11 9 12 12 10 11 10 10 14 13 13 14 14 14 14 13 13 12 11 12 12 12 12 13
13 15 14 16 14 15 17 18 19 19 18 18 16 16 17 20 21 20 18 15 10 10 11 13 12 11 9 9 13 14 14 13 13 12 13 12 12 14 14 14 13 15
14 16 17 17 17 16 18 19 20 19 20 20 21 20 20 20 21 21 21 21 19 14 13 11 12 15 12 12 14 14 14 11 10 14 14 14 14 15 16 16 14 15
18 17 17 18 19 19 19 19 20 19 20 20 20 21 24 23 21 23 21 21 22 22 18 12 12 12 12 10 12 12 12 11 12 10 13 15 16 15 14 15 17 15
18 19 19 18 19 19 20 20 19 21 20 21 20 22 23 25 24 23 22 23 24 23 23 24 25 28 25 20 17 12 11 12 14 14 16 17 17 14 13 15 16 18
17 18 18 17 18 19 19 20 20 19 21 19 21 21 22 22 23 25 24 24 23 23 22 27 29 29 28 27 26 25 21 12 12 15 15 16 16 14 12 13 15 16
18 18 19 17 18 20 20 21 21 21 22 23 22 23 24 25 24 25 24 24 25 23 23 24 27 29 28 27 27 28 25 20 11 11 13 15 16 14 15 16 17 15
19 17 19 20 19 20 20 20 21 22 22 21 22 23 25 24 24 24 23 22 24 23 22 22 26 29 27 28 26 25 24 21 19 13 13 14 14 15 14 17 16 14
19 17 19 20 20 20 21 22 23 21 23 22 22 24 23 24 25 23 24 25 25 24 24 23 24 24 23 26 25 24 21 21 20 19 14 12 13 16 17 17 17 19
19 18 20 19 20 21 22 21 23 23 24 23 25 25 24 24 24 24 24 24 25 25 24 22 22 21 34 32 23 22 22 21 20 18 16 13 12 14 13 13 13 14
20 21 21 22 21 21 20 24 26 23 24 25 25 24 26 26 25 26 27 25 24 25 24 24 22 30 35 28 27 26 22 22 21 21 16 14 11 12 13 11 11 15
21 23 22 22 22 24 23 22 22 25 25 24 26 26 25 25 27 25 24 24 24 24 21 23 20 29 32 31 28 27 24 23 19 19 17 13 13 13 11 10 13 14
22 23 23 22 23 24 22 23 26 25 25 24 25 22 20 25 24 24 24 25 25 25 24 24 20 27 32 32 30 28 27 22 17 21 17 15 13 11 11 12 15 15
23 22 23 22 22 22 22 24 24 24 21 19 18 19 21 21 22 24 23 25 26 24 23 23 21 28 32 32 31 31 29 23 14 16 16 15 15 13 10 9 12 16
21 23 22 21 21 20 19 20 20 19 21 20 19 21 22 22 21 22 22 23 24 25 24 24 25 30 33 33 33 33 31 19 14 14 14 16 13 14 12 10 11 13
22 21 19 20 21 21 20 20 18 19 18 16 17 17 17 17 17 18 21 23 26 27 28 25 26 30 34 34 34 34 31 22 19 15 15 16 12 15 17 16 13 8
22 23 20 20 22 22 21 19 19 20 17 15 17 18 19 20 19 19 19 22 25 27 27 25 26 30 34 35 34 36 26 24 23 23 22 20 19 15 15 15 15 15
20 21 21 21 22 24 23 20 18 18 17 17 17 18 20 19 19 18 19 19 21 23 26 25 26 28 33 34 34 35 29 25 23 23 23 21 20 18 17 16 19 26
16 18 19 21 22 22 22 22 19 19 17 17 17 16 16 17 17 19 18 19 20 20 21 25 26 26 31 33 34 35 34 23 25 23 22 22 20 20 17 16 17 17
17 16 16 19 22 22 23 20 19 19 20 18 18 18 18 17 17 17 18 21 20 20 25 25 27 28 30 33 32 33 35 28 25 25 25 21 21 21 20 22 20 21

ECMWFNIL_sfc_gust_096.txt.gz
Wind_Gust
10 9 8 9 9 11 13 14 13 12 12 12 12 13 12 11 10 8 10 9 7 9 10 10 10 9 11 12 12 11 13 13 14 14 16 17 17 18 20 19 19 20
7 7 9 11 13 13 14 13 14 14 14 13 14 14 14 14 13 11 11 10 9 10 12 11 11 10 11 12 12 13 16 15 16 13 15 16 17 16 18 17 18 18
7 8 8 14 14 14 15 14 14 14 14 14 14 15 16 15 16 16 14 11 11 11 11 11 10 10 10 10 10 11 14 14 15 13 13 15 16 16 15 16 15 18
8 9 9 11 11 13 13 15 16 16 15 16 16 16 16 16 16 16 16 16 14 12 10 10 10 10 9 10 11 12 13 14 14 13 13 14 15 17 19 17 17 16
11 11 11 11 10 9 10 14 16 16 17 16 16 17 18 18 17 17 17 18 18 16 13 10 10 10 10 10 10 12 12 13 14 13 14 14 13 14 15 16 17 18
12 12 12 11 12 12 13 14 14 15 16 15 17 16 17 17 18 18 17 19 18 18 19 16 12 12 10 11 11 11 12 14 15 14 15 17 15 14 15 15 14 15
15 14 14 14 14 14 15 17 17 17 16 16 15 17 18 19 20 20 19 19 19 20 25 27 24 24 23 19 13 11 12 13 14 13 14 14 14 15 15 15 15 14
14 14 16 18 15 15 19 19 19 18 18 18 17 18 18 20 22 21 18 21 20 20 25 29 26 24 24 24 22 22 19 14 13 13 14 15 14 15 14 14 13 14
15 16 17 17 18 18 19 20 20 19 19 19 20 20 20 19 21 21 21 21 21 21 24 29 29 27 26 25 24 23 22 23 18 13 13 14 14 15 14 14 14 15
18 17 17 18 19 20 21 19 21 20 20 19 19 20 22 23 21 22 21 22 21 22 23 29 29 29 28 27 24 23 22 21 22 22 16 13 13 14 13 13 15 17
17 18 19 20 20 21 21 20 19 20 21 23 21 21 21 22 23 22 22 24 24 24 23 29 29 29 29 28 27 24 22 21 21 21 21 17 13 14 13 14 15 18
18 18 20 21 22 21 21 20 20 20 20 20 23 23 22 21 22 22 22 22 22 23 21 23 22 23 23 24 22 23 23 22 22 21 21 20 16 13 13 15 15 16
19 20 20 21 21 21 21 21 20 20 21 22 23 23 23 25 24 24 24 22 23 22 22 22 23 22 23 24 24 23 22 22 22 21 20 20 19 16 14 15 15 15
20 20 21 21 20 20 20 20 20 20 20 20 20 22 24 26 24 23 22 22 23 21 22 19 23 25 26 27 23 22 22 21 21 20 20 20 20 18 14 14 15 13
18 19 20 20 20 20 20 19 19 18 19 19 20 21 22 25 25 24 24 25 24 24 23 21 22 25 26 28 28 26 21 20 21 21 20 19 20 19 16 18 18 15
18 18 19 17 19 19 19 18 18 17 18 18 19 19 20 22 22 24 25 25 24 24 23 23 23 23 35 34 27 26 25 21 20 19 18 18 18 18 17 15 17 18
17 18 17 17 16 16 16 17 17 16 15 17 17 17 18 19 19 23 27 25 25 24 23 23 22 30 34 27 27 28 25 21 20 20 17 18 18 17 16 16 15 16
17 17 18 17 17 18 15 14 14 13 14 14 15 16 16 15 18 18 19 21 23 24 23 24 22 29 31 31 30 30 26 25 18 17 17 16 16 16 16 16 15 15
17 17 17 17 16 16 16 15 14 13 14 15 16 14 12 16 16 17 18 19 21 23 25 24 23 27 32 32 31 31 29 27 18 17 16 16 14 14 15 16 16 15
17 18 18 18 17 16 14 15 15 15 12 12 14 14 15 14 15 17 17 19 21 21 20 22 22 29 31 32 31 32 30 25 18 19 21 17 18 19 18 19 19 20
15 16 18 18 18 18 17 17 15 14 14 13 15 16 16 16 16 17 18 17 18 20 21 22 25 30 31 33 33 34 32 20 22 21 22 21 19 17 18 19 21 21
15 15 16 16 16 17 18 18 17 16 15 14 13 12 13 13 13 15 17 19 18 20 22 23 25 30 33 33 34 34 31 23 22 21 22 22 22 20 18 19 18 20
16 17 17 17 17 18 18 18 18 18 16 14 14 13 13 16 15 16 17 17 19 20 21 21 23 29 33 33 33 35 26 23 24 22 23 21 19 21 20 19 18 21
16 18 19 19 19 19 18 18 18 17 17 17 16 15 15 13 13 15 15 17 19 20 22 21 22 26 31 32 33 34 27 23 21 21 21 22 21 21 21 21 23 29
15 17 18 18 19 18 18 18 17 16 15 15 16 15 15 12 12 14 14 15 17 18 20 23 23 24 29 31 32 32 31 22 24 20 22 24 22 22 20 21 23 21
12 14 16 17 16 15 16 16 14 15 16 15 15 15 14 13 11 14 16 15 16 18 21 22 24 25 28 31 30 31 31 28 24 22 24 22 21 22 24 23 22 23

ECMWFNIL_sfc_gust_102.txt.gz
Wind_Gust
14 12 12 13 13 13 14 15 14 13 13 13 14 14 13 13 14 15 14 14 15 17 18 17 17 18 17 16 16 14 11 12 12 10 12 13 14 13 14 14 15 15
15 15 14 14 14 15 14 14 14 15 15 14 14 13 13 15 15 14 15 16 16 19 20 19 19 20 19 18 18 16 16 16 14 12 13 13 13 14 15 15 16 17
15 15 15 14 13 13 12 11 12 13 14 15 14 15 15 14 15 15 15 15 16 19 19 18 19 20 19 19 18 16 17 17 17 18 17 15 14 14 14 14 15 16
14 13 13 13 13 12 12 13 13 13 13 15 16 15 16 15 15 16 16 17 16 17 17 17 18 19 20 20 19 17 18 16 16 18 17 16 16 16 16 14 16 17
12 13 13 13 13 13 13 14 16 17 16 15 14 15 17 16 17 17 17 16 16 16 17 17 17 18 18 18 18 18 18 17 19 19 18 17 17 17 17 16 15 16
12 12 13 14 14 16 17 18 18 18 17 15 16 16 15 15 16 17 18 17 17 16 18 18 19 18 19 19 18 17 17 19 19 19 19 19 18 18 18 18 18 17
13 13 14 14 15 16 18 17 17 17 16 14 14 17 15 15 15 16 16 17 17 19 19 20 20 21 21 20 19 20 21 19 19 20 20 20 19 20 19 19 20 19
13 12 13 15 15 16 16 15 15 16 16 15 16 15 16 16 18 17 17 17 17 18 20 20 21 21 20 20 21 21 21 20 20 22 20 20 19 20 21 20 20 21
12 13 13 13 14 14 15 15 14 12 14 15 15 14 15 16 16 17 16 17 17 19 20 20 22 21 22 22 22 21 21 21 21 20 19 20 21 21 21 22 22 21
13 12 13 13 13 12 13 12 12 12 12 13 13 14 17 15 15 16 17 18 18 20 20 21 22 23 23 22 23 21 22 22 22 21 20 19 20 22 22 22 22 23
11 11 12 12 12 11 11 11 12 12 13 14 14 15 15 15 16 15 18 19 21 20 21 21 23 23 23 24 24 21 21 21 21 20 20 20 20 21 20 22 22 23
10 11 12 12 11 11 11 11 12 13 13 13 14 15 15 16 16 18 19 19 19 19 20 22 22 22 23 24 23 23 22 21 19 19 20 20 20 20 20 21 22 24
10 10 11 11 10 11 11 12 13 13 14 15 14 14 16 18 17 19 19 18 18 19 20 21 22 21 24 25 25 24 22 22 21 20 18 18 17 20 21 21 22 23
10 9 9 10 10 10 11 12 12 12 12 12 13 15 16 17 17 16 17 18 19 18 20 21 21 21 23 26 26 24 24 23 21 20 19 20 20 19 20 21 21 22
10 10 10 10 11 11 12 13 12 12 12 12 13 14 14 14 14 14 15 18 19 20 20 20 21 22 24 29 27 26 24 21 20 19 21 21 20 21 21 21 20 20
11 11 11 11 12 13 12 12 12 12 13 13 14 13 13 13 13 14 15 18 20 20 20 17 19 19 31 31 26 28 25 22 20 19 21 21 21 22 23 23 22 21
12 11 12 12 11 12 12 12 12 12 13 14 14 14 14 14 14 15 15 15 17 17 19 19 18 26 32 26 27 31 26 21 19 20 20 20 21 22 23 25 24 23
11 12 12 11 11 12 11 11 11 12 13 13 14 15 14 13 16 15 15 15 15 16 17 19 18 26 28 29 28 30 28 25 18 19 21 20 20 22 22 23 24 26
11 12 11 11 11 10 11 12 12 13 14 14 15 13 12 15 15 15 15 15 15 16 18 19 18 25 28 30 29 30 29 25 20 19 21 21 21 23 21 24 24 26
11 11 11 11 10 11 11 13 13 13 12 11 12 13 14 14 14 15 14 15 16 16 15 18 18 25 28 30 29 30 28 22 20 20 20 21 22 23 22 23 23 24
11 11 11 11 11 11 12 13 13 12 13 12 12 12 13 14 14 14 15 15 16 16 15 17 19 25 27 29 29 30 27 18 21 20 21 21 22 22 22 23 22 24
11 11 11 11 11 12 13 13 13 13 13 12 12 13 12 12 13 13 15 15 15 16 17 18 19 23 26 27 28 29 24 23 22 22 22 23 23 23 23 25 22 26
10 10 11 11 11 13 13 13 13 14 13 12 13 12 13 14 12 12 12 14 17 17 17 17 18 22 26 27 27 29 20 20 21 23 22 23 23 23 23 24 23 28
9 10 11 10 11 12 11 11 11 10 12 10 11 11 13 12 10 12 12 12 14 16 17 16 17 20 25 26 26 28 23 21 22 22 21 23 22 22 23 23 23 31
8 9 10 10 11 10 11 12 11 10 7 8 10 9 10 9 11 12 12 14 14 14 18 19 17 18 23 24 26 26 28 20 23 23 21 24 23 24 22 23 23 22
8 9 9 11 10 10 11 10 8 10 12 10 10 10 10 11 10 12 14 14 13 14 16 16 18 19 23 26 25 25 26 25 20 25 26 24 24 26 27 24 23 23

ECMWFNIL_sfc_gust_105.txt.gz
Wind_Gust
16 16 16 17 18 16 16 16 14 13 13 13 13 14 14 13 15 15 14 13 15 16 16 16 16 17 17 16 17 17 16 16 17 17 18 19 19 20 21 20 19 21
17 17 17 17 17 17 17 16 16 15 15 14 14 13 13 14 15 15 14 14 15 17 16 16 16 16 17 17 18 17 18 17 18 19 19 19 18 18 19 21 21 21
17 17 18 18 18 17 15 15 14 15 15 15 15 16 15 14 15 16 16 16 16 17 19 18 18 18 19 19 20 19 20 20 20 20 20 19 19 19 19 19 20 21
18 18 19 18 17 16 15 16 15 15 15 16 17 16 17 16 16 17 17 18 18 19 19 20 21 21 21 21 21 20 21 20 21 21 20 20 19 20 20 19 19 20
18 19 17 17 17 17 16 17 17 17 17 17 16 17 18 18 18 19 19 20 19 19 20 21 22 22 22 22 22 22 22 21 22 22 21 21 22 22 21 20 21 22
19 18 17 18 17 17 18 18 18 18 17 16 19 19 18 18 19 20 21 20 20 21 22 22 23 23 23 22 23 22 22 22 22 21 21 21 21 22 22 22 22 22
18 17 18 18 18 18 18 18 18 18 18 16 17 20 20 20 21 21 21 20 21 22 23 23 24 24 23 23 22 22 23 21 21 21 21 20 21 22 21 21 22 23
18 17 19 18 18 19 20 19 19 19 18 19 20 20 22 22 22 21 21 22 22 23 23 24 24 24 24 23 24 23 23 21 21 22 21 20 20 21 22 21 21 22
18 19 19 19 20 20 20 20 19 18 20 21 21 19 22 22 22 22 22 22 23 23 24 24 26 24 24 24 23 23 23 22 21 21 21 21 21 22 22 22 22 22
19 20 21 21 21 21 20 20 20 19 19 21 20 21 23 22 21 22 22 22 22 23 24 25 26 26 26 25 24 23 23 23 22 21 20 21 22 22 23 24 24 25
20 20 21 22 21 21 20 20 20 20 20 21 20 21 23 23 22 21 22 23 24 24 24 26 25 26 27 27 25 23 22 21 21 21 21 21 22 22 20 23 23 23
20 20 21 21 20 20 20 20 20 20 19 19 20 20 21 23 23 23 23 24 23 24 24 26 26 26 27 27 27 26 23 22 21 20 21 21 21 21 22 22 23 23
20 20 20 19 20 19 19 19 19 18 19 20 19 20 21 21 23 24 23 23 23 23 24 25 25 26 28 28 27 26 24 23 23 22 22 22 22 22 22 21 21 22
18 18 19 19 19 19 19 19 19 19 19 19 19 20 21 21 23 24 23 23 24 24 24 25 26 26 28 30 28 27 26 24 23 23 23 22 23 24 24 24 23 22
17 17 18 18 19 19 19 19 19 19 19 20 20 19 19 20 20 22 22 23 24 25 25 26 27 29 29 31 30 28 26 25 24 23 24 24 25 26 26 26 26 26
18 17 18 17 18 18 18 18 18 19 19 20 20 20 19 18 19 20 23 25 25 26 26 26 28 28 31 30 25 28 25 24 24 22 23 23 25 27 27 28 27 26
17 17 17 18 16 17 17 18 19 18 19 19 19 18 18 18 18 20 21 23 25 25 26 26 28 33 30 25 26 28 26 22 22 22 22 24 24 26 26 29 29 29
17 17 17 16 16 17 17 18 18 19 19 18 18 18 18 18 20 20 20 21 22 23 24 26 27 26 25 27 26 27 24 24 20 21 23 23 24 26 26 28 29 30
17 17 16 16 16 17 17 18 18 18 18 18 18 17 17 20 20 19 20 20 23 24 25 26 28 25 26 28 27 26 26 22 22 22 23 24 25 26 26 28 28 29
17 16 17 16 16 17 17 18 18 18 17 16 16 17 19 19 19 20 19 22 24 24 24 25 29 25 27 28 28 27 24 19 23 22 22 23 24 26 26 27 28 29
17 16 17 16 17 17 18 18 18 17 17 17 17 18 19 20 19 19 19 22 24 25 24 25 30 25 25 27 27 27 24 15 26 23 24 24 24 25 25 26 27 30
16 16 17 17 18 18 18 18 18 17 17 15 16 17 18 18 19 19 20 22 24 25 25 25 27 23 25 26 27 27 21 24 27 25 25 24 25 25 25 26 27 30
16 17 18 18 17 18 19 18 17 17 16 15 17 18 18 19 18 18 19 23 25 26 25 24 27 24 24 25 25 27 21 27 26 26 25 25 26 25 26 26 26 29
16 18 19 18 18 19 18 17 16 15 15 14 16 17 18 17 17 19 19 22 24 25 25 24 24 22 24 24 25 26 22 26 26 25 24 26 25 25 26 26 27 31
17 18 18 18 20 18 17 17 16 15 13 14 15 16 16 16 17 19 20 20 19 19 18 22 22 21 22 24 25 25 27 25 26 24 24 26 26 27 27 28 28 26
17 18 17 19 20 17 16 15 14 15 16 15 16 17 18 18 18 19 20 20 19 19 21 22 23 24 25 25 25 25 25 26 26 27 26 26 27 29 29 28 29 29

ECMWFNIL_sfc_gust_111.txt.gz
Wind_Gust
14 13 14 14 14 13 12 12 13 12 13 12 12 13 14 14 15 15 15 15 16 17 18 19 19 19 20 19 20 19 18 18 20 19 20 21 20 20 21 21 20 21
14 13 13 14 14 14 13 13 13 13 13 13 13 13 14 14 15 15 16 16 16 17 17 18 18 19 19 19 19 19 18 19 19 20 21 20 20 20 20 20 19 20
15 15 15 15 15 14 14 14 13 13 14 14 13 14 14 14 15 16 17 16 16 17 17 17 17 18 18 18 19 17 19 18 19 20 20 19 19 19 20 20 19 20
16 16 16 16 15 14 14 14 14 15 14 15 15 15 15 15 15 16 16 16 16 16 16 16 17 17 19 18 19 18 18 18 19 19 19 19 19 20 20 20 20 22
16 16 16 17 17 17 16 16 16 16 16 15 15 15 16 16 16 17 17 16 15 16 16 18 18 18 18 19 19 19 18 19 19 20 20 20 19 20 20 20 21 22
16 17 17 17 16 15 16 16 15 15 16 15 15 15 17 17 17 17 16 16 16 17 17 17 18 18 19 18 19 19 19 19 20 20 21 20 20 21 21 21 21 22
17 17 16 17 16 15 16 16 15 15 15 14 16 17 17 17 17 16 16 16 17 18 19 19 19 19 19 18 19 20 20 19 19 21 21 21 21 21 21 20 22 23
17 16 16 16 15 15 16 17 16 16 14 15 16 17 16 17 17 16 16 17 18 19 19 20 20 20 20 19 20 20 20 19 20 21 21 21 21 21 22 23 22 23
17 17 17 16 15 16 16 17 17 16 16 16 17 17 17 18 17 17 18 19 19 19 20 21 21 21 19 19 19 20 21 20 20 21 21 22 22 23 24 24 23 23
18 18 17 16 16 17 17 17 17 17 17 18 18 17 18 17 17 18 19 19 19 20 21 21 22 21 21 21 20 20 21 21 21 20 21 22 22 23 24 24 24 24
18 18 17 17 17 18 17 17 17 18 18 19 18 18 17 17 17 17 18 20 21 21 21 22 22 23 23 23 22 20 21 21 21 21 22 22 22 23 20 24 24 24
18 17 17 17 18 18 18 18 18 18 18 18 18 18 18 18 18 18 19 21 21 22 22 23 23 24 24 24 23 22 21 21 21 22 22 22 22 23 23 23 24 24
18 18 18 18 18 18 18 19 20 19 19 19 18 18 18 19 18 19 18 20 21 22 23 23 24 25 26 26 24 22 21 21 22 22 22 22 23 24 24 24 25 25
18 18 18 19 19 19 20 20 20 20 20 19 18 18 19 19 18 18 18 19 20 21 22 23 24 25 26 27 25 22 21 21 22 23 23 23 23 24 25 25 26 26
19 18 18 19 20 20 20 20 20 19 19 19 18 18 17 18 18 19 19 20 21 21 22 23 24 25 28 29 26 22 21 20 21 23 23 24 25 26 25 26 27 27
20 18 19 19 19 20 20 19 20 19 19 19 19 19 18 18 18 18 19 20 21 21 21 22 25 25 27 26 20 22 21 21 22 22 23 24 25 26 26 27 27 26
20 20 20 20 19 19 19 20 20 19 19 19 19 18 17 17 17 18 18 19 21 22 22 22 24 27 24 21 23 22 21 22 22 23 23 25 25 26 27 28 29 29
20 20 20 20 19 20 19 19 19 19 19 18 18 17 17 16 17 18 18 17 20 22 23 24 24 22 22 23 22 24 20 24 20 23 24 25 25 27 27 28 29 30
20 20 20 20 19 19 18 19 19 19 18 18 17 16 16 18 18 17 17 17 18 21 22 25 25 21 20 22 21 23 23 22 19 23 25 24 26 26 26 28 29 31
20 20 20 19 18 18 18 19 18 18 16 16 16 16 17 17 17 18 18 18 19 20 21 24 27 20 20 22 21 23 22 22 20 23 24 24 26 26 26 28 30 32
20 19 19 19 18 18 18 18 17 16 16 15 16 16 17 17 17 18 18 18 18 19 20 22 26 22 21 22 23 23 25 19 23 23 25 25 26 26 26 27 28 32
19 19 18 18 19 18 17 18 17 16 16 15 15 16 17 17 18 18 19 19 18 18 19 22 26 22 21 22 24 24 28 16 22 23 25 25 25 25 25 25 26 29
19 19 18 18 18 18 17 17 16 15 14 14 15 16 16 17 17 18 19 20 20 19 19 22 25 23 20 21 23 25 21 22 21 24 26 26 26 25 26 25 24 27
18 19 19 18 18 19 17 16 16 15 14 14 15 16 16 16 16 18 19 20 21 22 21 20 23 21 19 19 22 25 24 23 21 24 26 26 26 25 26 26 23 21
18 19 19 19 19 18 17 17 15 15 15 14 15 15 16 16 16 17 17 19 20 21 15 20 21 20 17 18 21 24 27 22 24 25 26 27 27 27 26 26 27 21
18 19 19 19 19 18 17 15 14 14 14 14 14 15 16 16 16 17 17 18 17 19 22 22 20 22 22 18 19 20 24 25 22 23 25 27 27 29 28 26 26 27

ECMWFNIL_sfc_gust_114.txt.gz
Wind_Gust
13 13 14 14 14 12 13 13 13 13 13 13 14 13 14 13 13 13 12 12 13 14 15 15 15 14 15 14 15 14 14 14 16 16 17 17 17 17 19 19 19 20
14 13 13 14 15 14 14 14 14 14 14 14 13 13 13 12 13 13 13 13 14 14 14 14 14 15 15 15 15 14 15 16 17 18 18 17 16 17 17 18 17 19
15 15 15 15 16 14 14 14 14 14 15 15 13 12 12 12 12 12 13 13 13 13 14 14 15 15 15 15 15 14 15 15 17 17 18 16 17 17 18 18 18 19
16 16 16 16 15 14 14 15 14 15 14 14 13 12 13 11 12 13 12 13 13 14 14 14 15 15 15 15 15 15 15 15 18 18 18 18 18 19 19 18 19 21
15 16 16 16 15 15 15 15 15 14 14 14 13 14 14 12 12 13 13 13 14 14 14 15 16 16 15 15 15 16 16 17 18 18 18 18 18 20 18 19 20 21
16 17 17 17 15 14 15 15 15 14 15 14 14 14 13 13 14 15 15 15 16 16 16 16 17 17 17 16 16 16 16 17 19 19 20 19 19 20 21 21 21 22
16 16 16 17 16 15 15 15 15 14 15 14 14 14 14 15 15 16 17 16 17 17 18 17 17 17 16 16 16 16 16 16 17 19 19 19 19 20 20 20 21 23
16 16 16 16 16 15 15 16 15 14 14 14 14 15 15 16 17 16 16 17 17 18 18 19 19 19 18 17 17 17 16 16 16 18 19 19 18 20 21 21 20 21
17 17 16 16 15 15 15 16 15 14 14 15 16 16 15 17 17 17 18 18 18 18 19 19 20 19 18 18 18 18 18 17 17 18 19 19 21 22 22 22 22 22
17 17 16 16 15 16 16 15 16 15 15 16 16 16 18 16 17 18 18 18 18 19 20 20 21 21 20 20 19 18 18 19 19 19 19 20 21 22 23 23 23 22
17 16 17 16 16 16 16 16 15 16 16 17 16 16 16 16 16 17 18 18 19 20 21 21 22 22 22 21 19 18 17 18 19 19 19 20 21 22 19 22 23 23
18 18 17 17 16 16 16 16 16 16 16 16 17 18 16 16 17 17 18 19 20 21 21 22 22 22 22 22 20 19 18 18 18 19 20 20 21 21 21 22 22 23
17 16 17 16 16 16 16 17 17 16 17 17 16 16 16 17 17 18 17 19 20 21 22 23 22 22 22 21 20 20 21 18 18 19 20 20 21 21 22 22 22 23
18 17 16 17 17 17 17 17 17 18 17 17 17 16 17 17 17 17 17 18 19 20 21 21 22 22 22 22 21 20 21 19 19 20 20 21 21 21 23 23 24 24
18 17 17 17 18 18 17 17 18 17 17 17 16 16 16 16 17 18 18 19 19 19 21 21 21 21 20 20 21 22 21 19 19 20 21 21 21 22 23 24 25 24
18 17 18 18 18 18 18 18 18 17 17 17 18 17 16 16 16 17 19 19 19 20 19 20 22 20 21 21 16 18 20 20 17 19 20 21 22 23 22 24 25 25
19 19 18 19 18 18 17 18 18 18 17 18 17 16 16 16 16 17 18 19 20 20 20 21 22 23 22 20 21 20 19 21 17 18 20 21 22 22 24 25 26 26
19 19 19 19 18 19 18 18 18 18 18 17 17 16 16 15 15 16 17 17 19 20 21 22 22 19 20 21 21 23 18 21 16 19 20 21 22 23 24 25 27 28
19 19 19 18 18 18 17 18 18 18 18 17 17 16 15 16 16 15 16 17 18 20 21 23 23 19 19 20 21 21 22 19 16 18 20 20 22 22 23 25 27 28
20 19 19 18 17 17 17 17 17 17 16 16 16 15 16 16 16 15 16 17 18 19 21 22 24 18 19 21 20 22 21 20 13 17 18 19 20 21 21 24 27 28
20 19 19 18 17 17 16 16 16 15 16 16 16 15 15 16 16 15 15 16 17 19 20 21 23 20 20 22 22 23 24 18 14 15 16 16 18 19 20 22 24 26
19 18 18 17 17 16 16 16 15 15 16 16 16 16 16 16 16 15 16 16 16 18 19 21 23 20 20 21 23 24 27 16 16 15 16 16 17 19 21 18 21 24
19 18 18 17 17 17 16 15 14 14 15 15 16 16 16 17 16 17 17 17 17 17 18 20 22 20 19 21 22 25 20 20 13 16 17 17 18 18 20 19 19 24
18 18 18 17 16 17 15 14 14 13 14 14 15 15 16 16 16 17 18 18 18 17 17 18 21 19 18 19 21 24 23 21 17 17 17 19 18 18 20 18 18 18
17 18 17 16 15 14 13 14 14 15 15 14 14 14 14 14 14 16 16 17 18 18 11 16 19 18 16 16 19 21 24 22 18 17 18 18 20 19 17 19 20 14
17 16 16 15 16 13 13 13 13 13 12 12 12 14 15 15 14 15 14 15 15 17 19 18 17 19 18 14 15 16 20 25 18 19 20 20 19 20 20 19 20 20

ECMWFNIL_sfc_gust_117.txt.gz
Wind_Gust
15 15 16 16 15 14 14 15 14 14 12 12 10 8 9 8 9 9 7 7 7 7 7 8 8 11 12 12 11 11 11 14 14 12 11 11 11 9 13 13 14 15
14 15 15 15 15 15 15 14 14 13 11 9 8 8 8 7 6 6 6 6 7 9 9 9 9 10 11 11 10 10 11 14 12 10 10 12 12 11 14 14 13 14
13 14 15 14 15 15 15 14 12 11 11 10 9 8 6 5 5 6 7 8 10 10 11 10 9 9 10 11 11 11 12 12 11 10 10 10 11 14 15 14 15 16
14 14 15 15 14 14 14 13 9 8 8 9 7 6 6 5 6 10 11 11 10 10 10 11 11 10 10 11 10 10 10 10 10 11 13 15 14 15 16 14 16 18
14 14 12 13 12 12 10 10 10 11 11 11 9 7 7 10 10 11 11 11 11 11 11 12 11 10 9 10 8 10 10 13 13 14 16 16 16 16 16 17 16 18
14 13 15 14 12 12 12 12 11 11 10 8 8 8 10 11 12 11 11 13 14 14 12 11 12 12 11 10 9 10 10 13 13 15 17 16 16 18 16 17 17 19
13 13 14 13 13 13 13 12 10 10 8 7 8 11 11 11 12 13 13 14 15 14 13 13 13 13 12 11 11 11 12 12 13 15 15 16 16 18 17 16 18 18
12 12 13 14 14 13 12 11 10 9 8 10 12 12 13 15 14 13 14 15 14 14 14 15 15 15 13 11 11 11 11 12 13 14 15 15 15 17 18 17 17 18
13 13 13 12 13 12 11 12 11 10 10 12 13 13 14 15 15 17 15 14 14 15 16 16 16 14 12 13 11 11 13 12 13 13 14 15 16 17 17 16 17 16
13 13 12 11 11 10 11 10 11 11 12 14 14 15 17 16 17 17 15 14 15 16 17 16 16 14 13 14 15 11 13 13 13 14 15 16 16 16 16 17 15 16
13 14 12 12 11 11 11 11 11 12 11 12 12 13 13 15 16 15 14 15 17 17 17 17 16 16 14 14 16 13 12 13 14 14 14 15 17 17 16 16 17 16
14 13 13 12 12 12 12 12 13 12 12 12 13 15 15 15 16 15 15 15 17 17 17 16 17 16 16 16 16 17 16 12 13 14 13 15 16 17 17 17 18 17
15 13 12 11 11 11 12 13 13 12 13 14 13 14 15 15 15 15 13 15 16 17 17 16 16 16 15 15 16 16 15 12 14 12 13 13 15 16 16 17 16 15
13 13 12 12 11 12 12 12 12 12 12 12 13 15 15 15 15 15 13 14 16 16 16 15 14 15 15 15 14 13 13 12 13 12 13 12 12 14 15 15 14 14
14 13 13 13 13 13 14 14 13 13 13 13 14 16 17 16 15 14 14 15 16 16 17 14 13 13 13 14 13 13 12 12 10 13 12 13 12 13 12 13 13 13
15 13 15 14 13 13 12 12 12 12 14 14 15 16 16 16 14 14 15 16 16 16 14 13 12 10 14 13 10 10 10 11 7 11 10 10 11 12 12 12 14 13
16 15 15 14 13 13 11 12 12 13 13 12 13 15 17 16 15 14 14 16 16 15 14 13 12 15 18 16 16 15 12 11 6 8 8 11 11 11 12 14 13 13
16 16 15 15 13 14 14 13 13 13 13 12 13 14 15 15 15 13 14 14 15 15 15 14 13 15 17 18 18 19 13 11 6 7 10 11 11 10 12 14 14 12
16 16 15 14 14 14 13 13 13 13 13 13 13 13 14 14 12 12 13 13 14 15 15 16 14 15 17 18 18 18 18 13 5 10 13 12 10 11 13 13 12 14
16 15 15 14 13 14 14 15 14 14 12 12 12 13 15 14 13 12 12 12 13 13 13 15 15 14 17 18 17 19 18 14 5 10 12 12 10 13 10 10 11 12
16 16 15 15 15 16 15 15 13 13 12 11 12 12 14 15 13 11 11 11 12 12 12 13 15 16 17 19 19 20 20 14 7 10 10 10 9 10 8 10 9 11
16 15 15 15 16 15 14 13 12 13 14 13 12 12 12 12 10 11 11 11 11 12 11 13 16 17 18 20 21 21 19 15 12 12 9 7 9 8 7 8 6 10
15 16 16 15 15 15 14 13 14 13 13 12 14 13 14 13 11 10 10 10 10 11 11 12 14 16 17 19 21 21 15 15 14 14 13 11 8 7 8 6 4 9
15 15 15 15 14 14 13 13 12 12 13 14 15 14 14 12 11 11 10 10 9 9 10 10 11 13 16 18 19 21 17 14 12 12 13 13 9 7 7 3 6 13
14 14 14 14 14 13 13 14 13 13 13 14 15 14 14 12 11 10 9 9 8 7 8 9 8 9 12 14 16 17 18 12 14 13 13 15 11 8 7 10 9 9
14 15 13 14 13 11 11 11 11 13 14 15 14 14 14 13 11 10 9 8 7 7 8 7 8 7 8 12 12 13 15 14 12 14 13 15 13 9 10 10 11 12

ECMWFNIL_sfc_gust_123.txt.gz
Wind_Gust
13 13 14 14 13 13 14 14 12 14 12 12 13 10 11 9 11 12 11 11 10 11 11 12 12 13 15 15 15 16 16 16 16 16 18 19 18 17 18 15 14 14
13 14 14 14 13 12 13 13 13 14 14 12 10 10 11 12 11 12 12 11 12 12 12 13 13 14 15 15 15 17 17 17 17 16 19 17 15 16 15 15 14 13
13 14 15 15 16 14 14 13 14 13 14 11 10 13 13 12 12 11 12 12 13 13 13 13 15 15 15 15 15 16 16 16 16 15 17 15 14 15 14 14 13 12
13 15 15 15 15 15 13 16 14 12 11 13 12 13 14 12 13 13 13 12 13 13 13 14 14 15 15 15 16 16 15 15 13 14 16 15 15 14 14 12 13 14
15 15 14 15 14 14 14 17 15 12 13 14 14 13 15 14 14 13 13 12 12 13 14 14 14 15 15 15 14 16 15 15 14 15 15 15 13 14 13 12 12 14
13 14 15 15 14 15 16 16 14 14 15 15 14 14 14 14 13 12 12 13 12 14 14 14 15 14 15 15 16 16 15 15 14 14 15 15 12 12 13 13 13 15
15 14 14 14 14 14 16 14 15 16 16 14 15 15 14 14 13 12 12 12 13 14 14 14 14 14 13 16 16 16 15 14 13 14 15 13 13 14 12 13 14 15
14 12 13 13 14 14 15 15 16 16 15 16 16 13 14 14 13 11 11 13 15 14 14 14 14 14 13 15 16 15 14 13 13 13 13 13 13 14 13 13 12 14
14 13 14 14 15 14 16 16 17 15 16 18 16 14 13 13 12 12 12 14 15 14 14 14 14 14 13 15 14 14 14 12 11 11 13 14 14 13 12 10 12 13
14 14 15 14 15 14 16 15 16 16 16 17 15 15 16 12 12 12 13 14 15 14 13 13 14 14 13 12 13 13 14 13 11 12 12 12 11 11 10 11 11 11
13 13 15 15 14 15 15 16 16 16 17 16 16 16 14 14 12 10 13 13 15 13 13 14 12 13 13 12 11 11 12 12 10 10 11 11 9 8 10 8 10 10
14 14 15 15 15 15 15 16 17 16 16 15 16 16 14 12 12 11 13 13 12 12 13 12 12 12 11 12 12 12 12 11 10 10 10 9 8 7 6 6 7 6
15 15 17 16 15 14 15 16 17 16 17 16 15 15 14 14 12 13 11 12 11 11 12 12 11 10 11 11 11 11 11 11 10 10 9 9 7 7 7 5 5 4
14 14 16 16 15 15 16 16 16 16 16 15 14 14 14 13 13 13 11 11 11 12 10 11 11 11 9 9 9 10 10 10 9 9 9 8 7 6 5 5 5 5
14 13 15 16 17 16 17 17 17 16 15 15 14 13 13 12 10 11 13 13 11 11 10 10 12 10 7 9 11 9 9 10 9 9 9 9 7 5 5 6 6 6
15 14 16 16 17 17 17 17 17 16 16 15 14 13 12 11 11 11 12 12 12 11 11 12 10 7 8 9 8 10 9 9 9 8 7 7 6 6 7 7 7 7
16 16 17 17 16 17 17 18 17 16 16 15 13 12 12 11 12 13 11 11 11 12 12 10 8 6 7 8 10 11 9 8 8 7 6 5 5 6 6 8 9 8
16 16 17 17 17 18 17 16 16 17 16 14 14 12 11 11 13 11 10 10 11 11 11 9 7 7 9 10 10 10 9 9 7 7 5 4 3 4 5 6 8 10
16 17 18 17 17 17 17 17 17 17 16 15 13 11 10 12 10 11 10 9 11 12 10 7 6 7 11 13 13 13 13 10 6 6 6 4 2 2 4 6 7 10
16 17 17 17 16 16 16 16 16 16 14 13 12 10 12 11 9 10 9 10 11 11 9 8 8 8 11 14 15 15 14 9 4 5 5 3 3 4 6 7 7 7
17 18 18 17 17 16 16 16 16 15 15 13 13 12 12 12 11 11 9 9 9 9 11 11 8 7 13 16 17 17 15 9 5 4 2 3 5 5 5 6 7 8
18 18 18 17 17 16 17 16 15 16 15 12 12 11 9 10 8 10 10 10 8 11 13 10 7 9 14 17 17 16 13 9 6 5 4 4 5 6 7 7 7 6
19 19 18 17 17 17 17 16 16 14 12 13 15 12 12 10 9 8 8 10 10 11 13 9 8 9 12 15 16 15 12 9 7 7 5 5 5 6 7 7 7 6
17 19 19 17 17 18 17 15 14 13 14 14 16 13 12 10 10 10 7 9 11 10 11 11 7 8 11 12 12 12 11 11 8 9 5 5 6 6 7 6 8 13
16 16 17 17 17 17 18 17 16 16 13 13 13 12 12 10 10 12 7 7 8 8 11 12 8 7 10 11 11 10 11 9 10 8 7 5 7 9 7 6 10 10
23 19 16 17 17 15 15 16 15 15 14 14 12 12 12 10 9 11 11 7 7 8 9 8 10 7 8 10 10 9 9 10 6 10 5 3 6 5 9 10 8 10